Location: Il Cristo
(44.7500°N, 11.0000°E)
Time: 07:40:20
(UTC+00:00)

Daily predictions for brighter satellites

Satellite Brightness Start Highest point End
(mag) Time Altitude Azimuth Time Altitude Azimuth Time Altitude Azimuth
BREEZE-M DEB (TANK) 3.4 19:37:11 10° WNW 19:42:05 44° NNE 19:44:17 10° E
Meteor 1-21 4.5 19:38:48 10° SSW 19:44:26 78° W 19:50:05 10° N
Cosmos 2263 Rocket 3.8 19:44:10 10° NW 19:49:11 32° WSW 19:54:09 10° SSW
MetOp-B 4.3 19:46:51 10° SSE 19:52:07 62° ENE 19:57:25 10° N
Cosmos 1110 Rocket 4.2 19:47:17 10° S 19:52:16 51° ESE 19:57:19 10° NNE
In-Cosmos 22 4.0 19:50:04 10° S 19:55:20 81° E 20:00:40 10° NNE
Cosmos 1908 3.7 19:53:19 10° N 19:57:03 44° ENE 20:00:43 10° SSE
Cosmos 1544 Rocket 4.4 19:54:13 10° N 19:58:21 35° ENE 20:02:14 11° SE
Cosmos 1626 3.0 19:55:24 10° SSE 19:58:39 30° E 20:01:56 10° NNE
FALCON 9 DEB 4.1 19:57:20 10° WSW 20:00:41 51° NNW 20:04:02 10° NE
Cosmos 1455 Rocket 3.2 19:58:23 10° N 20:02:50 65° E 20:07:16 10° SSE
Okean 1 Rocket 4.4 19:59:34 10° NNW 20:03:38 39° W 20:07:43 10° SSW
Cosmos 2100 Rocket 4.1 19:57:56 10° N 20:04:16 65° E 20:10:31 10° SSE
ARIANE 5 R/B 3.4 20:01:01 11° SE 20:05:00 38° ENE 20:09:10 10° N
USA 81 4.2 19:59:52 10° N 20:05:09 79° W 20:10:24 10° S
Meteor 2-20 Rocket 4.5 19:59:10 10° S 20:05:18 90° ENE 20:11:26 10° N
ERS-2 4.5 20:02:35 10° N 20:05:43 27° WNW 20:08:50 10° SW
ATLAS 3B R/B 2.8 20:00:20 10° S 20:06:30 47° ESE 20:12:52 10° NE
BREEZE-M DEB (TANK) 2.2 20:04:26 10° WSW 20:06:46 75° SSE 20:11:01 10° ENE
Cosmos 1315 Rocket 4.4 20:03:07 10° NNW 20:06:54 35° W 20:10:38 10° SSW
Cosmos 1707 4.0 20:03:21 10° SSW 20:07:03 42° WNW 20:10:47 10° N
IGS 5A 3.8 20:04:05 10° S 20:08:12 64° W 20:12:21 10° NNW
Cosmos 2333 4.5 20:04:09 10° S 20:09:40 50° ESE 20:15:11 10° NE
Cosmos 1461 3.0 20:07:41 10° NW 20:11:53 68° WSW 20:15:24 13° SSE
ATLAS CENTAUR R/B 2.0 20:10:16 10° NNW 20:14:31 53° NE 20:18:22 14° SE
Cosmos 2173 Rocket 4.1 20:10:53 10° N 20:17:17 76° E 20:23:38 10° SSE
Cosmos 405 4.1 20:14:38 10° NNE 20:17:42 28° ENE 20:19:49 16° SE
SL-8 R/B 3.8 20:13:35 10° WNW 20:18:22 68° SSW 20:22:21 15° SE
SL-4 R/B 3.2 20:17:21 10° S 20:20:33 21° SE 20:23:34 10° E
Cosmos 2016 Rocket 4.2 20:15:12 10° N 20:21:11 54° ENE 20:26:21 14° SSE
Cosmos 2219 Rocket 2.6 20:17:07 10° S 20:22:28 44° ESE 20:27:50 10° NE
Meteor 2-5 Rocket 4.4 20:18:45 13° SSE 20:23:06 35° E 20:28:08 10° NNE
Cosmos 2333 Rocket 2.4 20:18:12 10° S 20:23:46 53° ESE 20:29:20 10° NE
FALCON 9 DEB 2.7 20:23:01 10° SW 20:26:06 69° SE 20:29:13 10° ENE
ERS-1 Rocket 3.3 20:24:08 15° SE 20:28:07 52° ENE 20:33:01 10° N
Cosmos 1025 Rocket 3.0 20:24:11 10° S 20:28:32 75° E 20:32:54 10° NNE
Geosat 4.4 20:24:37 15° SE 20:28:41 52° ENE 20:33:34 10° NNW
Lacrosse 5 rocket 1.8 20:26:09 10° WSW 20:29:47 56° NW 20:33:20 10° NE
Cosmos 1844 3.7 20:25:50 10° NNW 20:31:25 82° WSW 20:36:02 16° SSE
Cosmos 1536 Rocket 4.1 20:28:12 15° SSE 20:31:32 43° E 20:35:45 10° NNE
Spot 2 Rocket 3.5 20:28:30 14° SSE 20:32:53 83° ENE 20:38:00 10° NNW
Cosmos 1725 Rocket 4.1 20:29:30 10° N 20:35:37 60° ENE 20:40:27 17° SSE
USA 215 4.4 20:31:33 10° ENE 20:36:02 19° ESE 20:38:12 17° SSE
Cosmos 1331 Rocket 4.2 20:30:53 10° SSW 20:36:07 75° WNW 20:41:26 10° NNE
Cosmos 1900 4.4 20:35:29 10° NW 20:40:23 72° WSW 20:43:50 19° SSE
DNEPR-1 R/B 3.5 20:36:25 10° NNW 20:40:38 75° NE 20:43:36 21° SE
FALCON 9 DEB 3.3 20:38:42 10° WSW 20:41:46 62° NNW 20:44:51 10° NE
CARTOSAT-1 3.6 20:40:17 17° S 20:43:37 82° WSW 20:47:58 10° NNW
Cosmos 2237 Rocket 3.6 20:41:59 17° SE 20:43:51 20° E 20:47:47 10° NE
Terra 2.2 20:41:19 19° SE 20:44:28 50° ENE 20:49:05 10° N
SL-14 R/B 3.3 20:41:31 15° S 20:44:46 73° E 20:48:48 10° NNE
SPOT 1/Viking Rocket 4.1 20:40:41 10° S 20:45:37 54° W 20:50:40 10° NNW
Cosmos 2360 Rocket 3.2 20:41:23 10° SW 20:46:52 50° WNW 20:52:21 10° NNE
Cosmos 1674 4.2 20:43:32 10° SW 20:46:55 34° WNW 20:50:20 10° N
FALCON 9 DEB 3.2 20:46:37 10° WSW 20:49:42 68° NNW 20:52:50 10° NE
Cosmos 2322 Rocket 4.3 20:46:18 10° WSW 20:51:16 30° NW 20:56:16 10° N
SPOT 5 2.9 20:48:16 19° SSE 20:51:57 84° ENE 20:56:50 10° NNW
Cosmos 1953 3.7 20:48:32 10° NNW 20:52:15 35° W 20:55:57 10° SSW
FALCON 9 DEB 3.6 20:49:17 10° WSW 20:52:20 54° NNW 20:55:24 10° NE
Cosmos 1455 4.3 20:51:36 10° NE 20:53:42 14° ENE 20:55:06 12° E
Meteor 1-24 Rocket 3.9 20:51:24 19° SSE 20:55:02 52° E 21:00:22 10° NNE
Cosmos 1802 Rocket 4.2 20:50:08 10° NNW 20:56:25 71° W 21:01:56 14° S
Cosmos 1302 Rocket 4.0 20:52:10 10° SSW 20:57:26 87° ESE 21:02:42 10° NNE
Cosmos 1459 Rocket 4.5 20:51:54 10° NNW 20:57:47 55° W 21:03:32 11° SSW
H-2A R/B 3.9 20:54:10 10° NNE 20:58:05 42° E 20:59:52 26° SSE
Cosmos 1300 2.6 21:00:36 10° N 21:04:26 89° W 21:06:19 28° S
Resurs 01 Rocket 4.1 21:02:09 10° SW 21:05:00 17° W 21:07:52 10° NW
Cosmos 1340 3.5 21:07:27 12° SSW 21:10:47 49° WNW 21:14:28 10° N
Cosmos 2322 4.1 21:08:51 10° SW 21:14:26 63° WNW 21:20:05 10° NNE
COSMOS 2428 2.7 21:10:20 10° SSW 21:16:05 87° WNW 21:21:53 10° NNE
Cosmos 2278 Rocket 2.7 21:12:04 10° NNW 21:17:38 52° ENE 21:20:55 24° SE
Cosmos 1844 Rocket 4.2 21:13:31 10° NW 21:18:19 29° WSW 21:22:30 13° SSW
GENESIS II 4.3 21:20:01 35° S 21:21:17 51° ESE 21:25:05 10° NE
NOSS 0 Rocket 4.1 21:17:59 21° S 21:22:06 55° ESE 21:28:11 10° NE
Cosmos 389 Rocket 2.6 21:20:07 10° N 21:23:31 55° ENE 21:24:17 42° SE
Cosmos 1726 Rocket 4.2 21:21:01 10° N 21:25:17 43° ENE 21:26:53 30° SE
Cosmos 2058 Rocket 4.4 21:21:48 10° NNE 21:25:36 27° ENE 21:27:08 22° ESE
Cosmos 1867 3.5 21:20:33 10° NW 21:26:04 88° NE 21:28:54 30° SE
ATLAS 2A CENTAUR R/B 4.5 21:24:15 10° SW 21:27:31 12° SSW 21:27:33 12° SSW
Cosmos 968 Rocket 3.6 21:25:53 10° NNW 21:30:58 69° WSW 21:33:29 30° S
Cosmos 1486 Rocket 4.0 21:31:16 10° NNW 21:36:30 82° WSW 21:38:52 33° SSE
SJ 16-02 3.8 21:35:51 10° NNE 21:37:47 13° NE 21:39:42 10° E
Meteor 2-10 Rocket 3.4 21:35:16 10° NNW 21:40:20 80° W 21:42:36 33° S
Cosmos 1606 Rocket 3.5 21:36:29 10° N 21:40:59 80° E 21:42:32 40° SSE
Cosmos 1992 Rocket 3.9 21:37:58 23° SSW 21:41:18 88° ESE 21:46:34 10° NNE
Cosmos 2233 Rocket 4.2 21:35:47 10° NNW 21:41:53 67° W 21:45:35 25° S
Cosmos 1943 Rocket 4.2 21:38:57 10° N 21:42:55 20° NE 21:46:53 10° E
Cosmos 1892 Rocket 3.8 21:43:59 40° SE 21:45:12 55° E 21:49:34 10° NNE
Cosmos 1346 Rocket 3.1 21:47:04 32° SSW 21:48:45 64° WNW 21:52:46 10° N
Cosmos 1354 Rocket 4.1 21:47:27 10° NNW 21:52:48 70° ENE 21:55:00 36° SE
ATLAS CENTAUR R/B 3.3 21:49:50 10° WNW 21:53:08 21° WSW 21:54:30 18° SW
Cosmos 1980 3.6 21:51:14 27° SSW 21:54:24 78° ESE 22:00:06 10° NNE
Cosmos 1441 Rocket 4.0 21:54:42 35° E 21:54:52 35° E 21:58:23 10° NNE
BREEZE-M DEB (TANK) 3.2 21:45:03 10° SW 21:56:31 69° SSE 21:59:55 10° ENE
ATLAS 3B R/B 3.8 21:51:04 10° WSW 21:57:16 43° NW 22:03:43 10° NNE
ALOS 2 3.8 21:57:54 25° ESE 21:59:19 32° ENE 22:03:13 10° N
NOSS 3-1 (C) 4.3 21:59:23 25° ESE 21:59:38 25° ESE 22:04:16 10° ENE
SL-4 R/B 1.9 21:55:42 10° WSW 21:59:50 81° NNW 22:03:40 10° ENE
Centaur D AC-28 4.5 21:59:58 24° S 22:04:22 32° SE 22:43:51 10° E
Cosmos 2219 Rocket 3.9 22:01:32 10° WSW 22:06:33 32° NW 22:11:38 10° N
Cosmos 2333 Rocket 4.1 22:03:28 10° WSW 22:08:20 28° NW 22:13:14 10° N
Cosmos 1703 3.4 22:08:43 51° ESE 22:09:04 53° E 22:12:56 10° NNE
Lacrosse 5 rocket 4.3 22:07:13 10° WNW 22:09:31 16° NNW 22:11:47 10° NNE
Cosmos 1607 3.9 22:03:39 10° NW 22:10:06 83° WSW 22:12:53 36° SSE
Cosmos 2228 4.1 22:08:30 10° NNW 22:12:35 38° W 22:14:06 28° SW
Cosmos 1626 Rocket 4.3 22:12:19 35° ESE 22:12:56 37° E 22:17:01 10° NNE
Iridium 2 4.0 22:12:19 48° SW 22:13:04 59° W 22:16:47 10° N
Cosmos 2346 Rocket 4.4 22:16:24 37° S 22:18:55 73° E 22:25:06 10° NNE
USA 215 3.1 22:13:13 10° NE 22:19:46 72° SE 22:25:28 14° SW
Meteor 2-1 Rocket 4.1 22:14:40 10° N 22:20:14 85° E 22:22:14 42° SSE
Terra 3.8 22:20:12 14° SW 22:22:30 19° W 22:25:54 10° NW
COBE Rocket 3.9 22:22:10 44° SSE 22:23:43 75° ENE 22:28:38 10° N
SL-16 R/B 2.6 22:23:55 39° SE 22:25:13 45° ESE 22:30:37 10° NE
Cosmos 2237 Rocket 2.5 22:23:45 22° SW 22:27:21 64° WNW 22:32:57 10° NNE
Cosmos 1455 2.8 22:25:54 10° NNW 22:29:32 43° W 22:29:59 41° WSW
Cosmos 1184 Rocket 3.4 22:29:49 46° W 22:29:53 46° WNW 22:33:03 10° N
Cosmos 1328 3.8 22:31:00 58° ESE 22:31:09 59° E 22:34:59 10° NNE
Cosmos 1464 Rocket 4.1 22:25:21 10° N 22:31:44 76° W 22:34:26 37° S
Cosmos 2369 Rocket 3.9 22:32:24 10° N 22:37:12 27° NE 22:41:39 11° ESE
GEOS 3 Rocket 3.6 22:38:08 42° SSE 22:40:02 82° SW 22:45:25 10° NW
ATLAS CENTAUR R/B 3.2 22:40:45 28° SW 22:43:43 86° SE 22:56:17 10° NE
Cosmos 1816 Rocket 4.4 22:47:50 41° S 22:50:11 89° E 22:56:21 10° N
NOSS 2-3 (D) 4.2 22:51:07 39° ESE 22:51:07 39° ESE 22:55:03 10° NE
USA 32 4.1 22:46:39 10° N 22:51:55 69° E 22:53:23 46° SSE
Aureole 3 4.3 22:48:30 10° N 22:52:19 45° E 22:53:19 38° ESE
USA 267 3.5 22:46:54 12° ESE 22:53:03 69° NNE 22:59:34 10° NW
Okean 1-7 Rocket 4.3 22:54:15 37° WSW 22:55:27 47° WNW 22:59:46 10° N
Cosmos 1812 Rocket 3.5 22:54:20 10° N 22:58:42 72° E 22:59:22 60° SE
BREEZE-M DEB (TANK) 3.9 22:57:01 10° WNW 23:00:41 54° N 23:11:38 10° E
Cosmos 2278 Rocket 3.5 22:56:49 10° NW 23:01:21 25° WSW 23:02:45 23° SW
Cosmos 2058 Rocket 4.4 22:59:44 10° NNW 23:03:32 28° W 23:04:24 26° WSW
Cosmos 2297 3.6 22:58:37 10° NNW 23:04:18 88° ENE 23:06:11 44° SSE
NOSS 2-3 (C) 3.5 23:07:22 61° SE 23:07:29 61° ESE 23:12:06 10° NE
Cosmos 2034 Rocket 4.3 23:01:46 10° NNW 23:07:47 56° W 23:10:01 37° SSW
Thor Agena Rocket 3.7 23:03:20 10° NNE 23:08:32 63° ESE 23:09:46 48° SSE
SAR-Lupe-2 3.5 23:06:02 10° NNE 23:09:33 83° NW 23:09:33 83° NW
SJ 16-02 1.2 23:12:34 10° NNW 23:16:58 80° WSW 23:17:27 68° S
Meteor 1-11 4.2 23:19:57 44° SSW 23:21:47 76° W 23:27:23 10° N
In-Cosmos 22 Rocket 4.4 23:23:39 41° SSE 23:25:15 56° E 23:30:36 10° NNE
GP-B 3.0 23:20:52 10° N 23:25:20 76° W 23:26:01 61° SSW
Meteor 1-27 4.2 23:19:49 10° N 23:25:25 79° E 23:27:14 44° SSE
Cosmos 1825 Rocket 3.6 23:25:14 57° SE 23:25:51 65° E 23:30:16 10° NNE
Meteor 1-4 Rocket 4.0 23:24:02 10° NNW 23:26:36 27° W 23:26:36 27° W
Cosmos 1943 Rocket 2.0 23:21:47 10° NNW 23:27:18 78° WSW 23:28:53 48° S
X-37B 3.5 23:33:13 10° E 23:33:13 10° E 23:33:15 10° E
Cosmos 1892 2.8 23:30:16 63° ESE 23:30:22 63° E 23:34:13 10° NNE
Cosmos 2142 Rocket 4.5 23:29:15 10° N 23:35:25 78° E 23:37:53 39° SSE
ALOS 2 3.9 23:35:17 26° WSW 23:35:39 26° W 23:39:23 10° NW
Cosmos 1437 Rocket 4.3 23:32:53 10° NNE 23:36:13 27° ENE 23:37:14 24° E
Tsikada Rocket 4.5 23:34:14 31° SW 23:36:51 50° WNW 23:42:51 10° N
Cosmos 1869 3.3 23:33:35 10° N 23:37:41 73° E 23:38:08 65° SE
Cosmos 1943 3.8 23:36:45 36° SE 23:38:08 43° ESE 23:43:27 10° NE
CZ-2D R/B 4.1 23:35:05 10° NE 23:38:12 16° E 23:40:22 13° ESE
SL-4 R/B 3.7 23:36:16 10° WNW 23:39:46 30° N 23:43:04 10° NE
Cosmos 990 Rocket 4.0 23:35:49 10° NNW 23:41:01 74° ENE 23:42:50 41° SE
Lacrosse 4 Rocket 4.1 23:38:46 10° N 23:41:21 16° NE 23:43:54 10° E
USA 229 DEB 3.5 23:38:46 38° SSW 23:41:31 84° SE 23:48:21 10° NE
USA 229 3.5 23:38:53 38° SSW 23:41:37 84° SE 23:48:28 10° NE
EO 1 Del DPAF 3.3 23:38:55 10° NNE 23:42:36 59° E 23:42:38 59° ESE
Cosmos 841 Rocket 4.5 23:44:06 29° SE 23:45:19 32° E 23:49:53 10° NE
DELTA 2 R/B (1) 4.2 23:47:09 36° SE 23:47:09 36° SE 23:51:24 10° E
Cosmos 1603 4.0 23:46:12 41° SSE 23:47:47 54° ESE 23:53:17 10° NE
NOSS 3-1 (C) 3.7 23:46:44 25° WSW 23:49:50 57° NW 23:56:04 10° NNE
Cosmos 1953 Rocket 3.5 23:50:41 61° SSE 23:51:23 79° E 23:55:49 10° N
SL-16 R/B 4.1 23:46:45 10° ESE 23:51:59 30° ENE 23:57:14 10° N
Cosmos 1408 2.4 23:53:09 82° W 23:53:11 83° W 23:56:54 10° N
Cosmos 1242 Rocket 4.5 23:51:04 10° NNE 23:53:59 23° ENE 23:55:13 19° E
Cosmos 1825 2.4 23:54:28 54° ESE 23:54:40 55° E 23:58:22 10° NNE
USA 306 4.0 23:56:43 30° ESE 23:56:43 30° ESE 23:59:52 10° ENE
